This demonstration page uses our WeatherBlox Daily Observations layout. Learn more.

Hourly Observations for September 19, 2020

Temp ( °F °C ) Dew Point ( °F °C ) Humidity (%) Winds ( mph kmh ) Pressure ( in mb ) Visibility ( mi km ) Precip ( " mm )
12:15 am 00:15 Clear 60 15.5 51 10.5 72 72 SSE 13 20 30.14 1021 10 16.0934 0 0
12:35 am 00:35 Clear 59 15.2 51 10.6 74 74 SSE 10 17 30.13 1020 10 16.0934 0 0
12:55 am 00:55 Clear 59 15.2 51 10.6 74 74 SE 10 17 30.13 1020 10 16.0934 0 0
1:15 am 01:15 Clear 59 15 51 10.7 76 76 SE 9 15 30.14 1021 10 16.0934 0 0
1:35 am 01:35 Clear 59 14.8 51 10.7 77 77 SE 9 15 30.14 1021 10 16.0934 0 0
1:55 am 01:55 Clear 58 14.6 51 10.8 78 78 SE 10 17 30.13 1020 10 16.0934 0 0
2:15 am 02:15 Clear 58 14.3 51 10.8 80 80 SE 10 17 30.13 1020 10 16.0934 0 0
2:35 am 02:35 Clear 57 14 52 11 82 82 SSE 10 17 30.13 1020 10 16.0934 0 0
2:55 am 02:55 Clear 57 14.1 52 11 82 82 SE 12 19 30.11 1020 10 16.0934 0 0
3:15 am 03:15 Clear 58 14.2 52 11 81 81 SSE 10 17 30.11 1020 10 16.0934 0 0
3:35 am 03:35 Clear 58 14.2 52 11.1 82 82 SSE 12 19 30.1 1019 10 16.0934 0 0
3:55 am 03:55 Clear 58 14.5 52 11.1 80 80 SSE 15 24 30.1 1019 10 16.0934 0 0
4:15 am 04:15 Clear 58 14.6 52 11.1 80 80 S 14 22 30.09 1019 10 16.0934 0 0
4:35 am 04:35 Clear 58 14.6 52 11.2 80 80 SSE 14 22 30.09 1019 10 16.0934 0 0
4:55 am 04:55 Clear 58 14.5 52 11.2 81 81 SSE 14 22 30.09 1019 10 16.0934 0 0
5:15 am 05:15 Clear 58 14.5 52 11.1 80 80 SSE 15 24 30.09 1019 10 16.0934 0 0
5:35 am 05:35 Clear 57 14.1 52 11 82 82 SSE 16 26 30.08 1019 10 16.0934 0 0
5:55 am 05:55 Clear 57 14 52 11 82 82 SSE 17 28 30.07 1018 10 16.0934 0 0
6:15 am 06:15 Clear 57 13.9 52 11.1 83 83 SSE 15 24 30.08 1018 10 16.0934 0 0
6:35 am 06:35 Clear 57 13.8 52 11.1 84 84 SSE 14 22 30.08 1019 10 16.0934 0 0
6:55 am 06:55 Clear 57 13.7 52 11.1 84 84 SSE 10 17 30.08 1019 10 16.0934 0 0
7:15 am 07:15 Clear 57 13.7 52 11.2 85 85 SSE 12 19 30.08 1019 10 16.0934 0 0
7:35 am 07:35 Sunny 57 13.9 52 11.2 84 84 SSE 13 20 30.08 1018 10 16.0934 0 0
7:55 am 07:55 Sunny 58 14.2 52 11.3 83 83 SSE 14 22 30.07 1018 10 16.0934 0 0
8:15 am 08:15 Sunny 58 14.5 52 11.2 81 81 S 15 24 30.07 1018 10 16.0934 0 0
8:35 am 08:35 Sunny 58 14.7 52 11.3 80 80 S 17 28 30.06 1018 10 16.0934 0 0
8:55 am 08:55 Sunny 59 15 52 11.3 79 79 S 18 30 30.06 1018 10 16.0934 0 0
9:15 am 09:15 Sunny 60 15.5 53 11.4 77 77 S 16 26 30.05 1018 10 16.0934 0 0
9:35 am 09:35 Sunny 61 16.2 53 11.5 74 74 S 17 28 30.05 1017 10 16.0934 0 0
9:55 am 09:55 Sunny 62 16.9 53 11.5 71 71 S 21 33 30.04 1017 10 16.0934 0 0
10:15 am 10:15 Sunny 64 17.5 53 11.5 68 68 S 21 33 30.03 1017 10 16.0934 0 0
10:35 am 10:35 Sunny 65 18.1 53 11.5 66 66 S 20 31 30.04 1017 10 16.0934 0 0
10:55 am 10:55 Sunny 66 18.9 53 11.6 63 63 S 22 35 30.03 1017 10 16.0934 0 0
11:15 am 11:15 Sunny 67 19.6 53 11.7 60 60 S 22 35 30.03 1017 10 16.0934 0 0
11:35 am 11:35 Sunny 68 20.2 53 11.6 58 58 S 22 35 30.01 1016 10 16.0934 0 0
11:55 am 11:55 Sunny 69 20.6 53 11.6 56 56 S 23 37 30 1016 10 16.0934 0 0
12:15 pm 12:15 Sunny 71 21.5 53 11.8 54 54 S 20 31 29.98 1015 10 16.0934 0 0
12:35 pm 12:35 Sunny 72 22.3 53 11.9 52 52 S 21 33 29.97 1015 10 16.0934 0 0
12:55 pm 12:55 Sunny 73 23 54 12.1 50 50 SSE 21 33 29.96 1014 10 16.0934 0 0
1:15 pm 13:15 Sunny 75 24 54 12.4 48 48 SSE 20 31 29.94 1014 10 16.0934 0 0
1:35 pm 13:35 Sunny 75 24 54 12.2 48 48 SSE 22 35 29.94 1014 10 16.0934 0 0
1:55 pm 13:55 Sunny 76 24.7 53 11.8 45 45 SSE 23 37 29.93 1014 7 11.26538 0 0
2:15 pm 14:15 Sunny 76 24.7 53 11.9 45 45 SSE 23 37 29.92 1013 7 11.26538 0 0
2:35 pm 14:35 Sunny 78 25.6 54 12 43 43 S 17 28 29.9 1013 10 16.0934 0 0
2:55 pm 14:55 Sunny 79 26.3 53 11.6 40 40 SSE 22 35 29.89 1012 7 11.26538 0 0
3:15 pm 15:15 Sunny 80 26.4 53 11.8 40 40 S 23 37 29.88 1012 10 16.0934 0 0
3:35 pm 15:35 Sunny 79 26 52 11.3 40 40 SSE 23 37 29.87 1012 7 11.26538 0 0
3:55 pm 15:55 Sunny 79 26 53 11.5 40 40 SSE 22 35 29.86 1011 7 11.26538 0 0
4:15 pm 16:15 Sunny 79 26.1 52 11.3 40 40 SSE 22 35 29.86 1011 7 11.26538 0 0
4:35 pm 16:35 Sunny 81 27.1 51 10.4 35 35 SSE 26 43 29.84 1011 7 11.26538 0 0
4:55 pm 16:55 Sunny 80 26.6 50 10.2 36 36 S 24 39 29.85 1011 7 11.26538 0 0
5:15 pm 17:15 Sunny 80 26.6 49 9.6 34 34 S 22 35 29.85 1011 7 11.26538 0 0
5:35 pm 17:35 Sunny 80 26.6 49 9.4 34 34 SSE 21 33 29.85 1011 7 11.26538 0 0
5:55 pm 17:55 Sunny 79 26.2 49 9.5 35 35 S 18 30 29.85 1011 7 11.26538 0 0
6:15 pm 18:15 Sunny 78 25.4 50 10 38 38 SSE 18 30 29.86 1011 7 11.26538 0 0
6:35 pm 18:35 Sunny 76 24.5 52 11 43 43 SSE 20 31 29.86 1011 7 11.26538 0 0
6:55 pm 18:55 Sunny 74 23.6 53 11.5 47 47 SSE 15 24 29.87 1012 7 11.26538 0 0
7:15 pm 19:15 Sunny 74 23.1 52 11 47 47 SSE 17 28 29.88 1012 7 11.26538 0 0
7:35 pm 19:35 Sunny 72 22.3 52 11.3 50 50 SSE 16 26 29.88 1012 7 11.26538 0 0
7:55 pm 19:55 Clear 72 22 53 11.5 51 51 SSE 17 28 29.89 1012 7 11.26538 0 0
8:15 pm 20:15 Clear 70 21.3 53 11.8 55 55 SSE 16 26 29.89 1012 7 11.26538 0 0
8:35 pm 20:35 Clear 69 20.7 54 12.1 58 58 SSE 16 26 29.9 1012 7 11.26538 0 0
8:55 pm 20:55 Clear 68 20.2 54 12.3 61 61 SSE 15 24 29.91 1013 7 11.26538 0 0
9:15 pm 21:15 Clear 67 19.7 55 12.5 63 63 SSE 15 24 29.91 1013 10 16.0934 0 0
9:35 pm 21:35 Clear 67 19.2 55 12.6 66 66 SSE 15 24 29.93 1014 7 11.26538 0 0
9:55 pm 21:55 Clear 66 19.1 55 12.6 66 66 SSE 17 28 29.93 1014 7 11.26538 0 0
10:15 pm 22:15 Clear 66 19 55 12.7 67 67 SSE 18 30 29.93 1014 10 16.0934 0 0
10:35 pm 22:35 Clear 66 18.7 55 12.7 68 68 SSE 17 28 29.94 1014 10 16.0934 0 0
10:55 pm 22:55 Clear 66 18.9 55 12.8 68 68 SSE 16 26 29.94 1014 10 16.0934 0 0
11:15 pm 23:15 Clear 66 18.8 55 12.7 68 68 SSE 16 26 29.94 1014 7 11.26538 0 0
11:35 pm 23:35 Clear 66 18.8 55 12.7 68 68 SSE 16 26 29.94 1014 7 11.26538 0 0
11:55 pm 23:55 Clear 66 19 55 12.8 67 67 SSE 17 28 29.94 1014 7 11.26538 0 0

Powered by AerisWeather